Madison, MN

8:40 PM CDT on March 22, 2017 (GMT -0500)
Madison-Lac Qui Parle County

Weather History for KDXX - April, 2013

Change the Weather History Date:

Wednesday, April 24, 2013

  Actual Average (KAQP) Record (KAQP)
Temperature  
Mean Temperature 35 °F -  
Max Temperature 44 °F 59 °F 82 °F (1998)
Min Temperature 26 °F 34 °F 21 °F (2005)
Degree Days  
Heating Degree Days 30    
Moisture  
Dew Point 27 °F    
Average Humidity 71    
Maximum Humidity 93    
Minimum Humidity 53    
Precipitation  
Precipitation 0.04 in - - ()
Sea Level Pressure  
Sea Level Pressure 29.99 in    
Wind  
Wind Speed 10 mph (West)    
Max Wind Speed 26 mph    
Max Gust Speed 36 mph    
Visibility 10 miles    
Events Rain , Snow    
Averages and records for this station are not official NWS values.
T = Trace of Precipitation, MM = Missing Value Source: NWS Daily Summary

Daily Weather History Graph

Daily Weather History Graph

Search for Another Location

Airport or City:

Trip Planner

Search our weather history database for the weather conditions in past years. The results will help you decide how hot, cold, wet, or windy it might be!

Date:

Astronomy

Apr. 24, 2013 Rise Set
Actual Time 6:24 AM CDT 8:21 PM CDT
Civil Twilight 5:52 AM CDT 8:53 PM CDT
Nautical Twilight 5:14 AM CDT 9:32 PM CDT
Astronomical Twilight 4:31 AM CDT 10:15 PM CDT
Moon 7:25 PM CDT (4/24) 5:31 AM CDT (4/24)
Length of Visible Light 15h 00m
Length of Day
13h 57m
Waxing Gibbous, 98% of the Moon is Illuminated
Apr 24
Waxing Gibbous
Apr 25
Full
May 2
Last Quarter
May 9
New
May 17
First Quarter

Hourly Weather History & Observations

Time (CDT) Temp. Windchill Dew Point Humidity Pressure Visibility Wind Dir Wind Speed Gust Speed Precip Events Conditions
12:13 AM 26.6 °F 20.0 °F 23.0 °F 86% 30.07 in 10.0 mi South 5.8 mph - N/A   Clear
12:34 AM 26.6 °F 21.2 °F 23.0 °F 86% 30.07 in 10.0 mi South 4.6 mph - N/A   Clear
12:54 AM 26.6 °F 21.2 °F 23.0 °F 86% 30.06 in 10.0 mi SW 4.6 mph - N/A   Clear
1:13 AM 30.2 °F 24.3 °F 24.8 °F 80% 30.05 in 10.0 mi WSW 5.8 mph - N/A   Clear
1:34 AM 32.0 °F 25.6 °F 24.8 °F 75% 30.05 in 10.0 mi WSW 6.9 mph - N/A   Clear
1:54 AM 30.2 °F 25.4 °F 24.8 °F 80% 30.04 in 10.0 mi West 4.6 mph - N/A   Clear
2:14 AM 32.0 °F 24.2 °F 24.8 °F 75% 30.04 in 10.0 mi West 9.2 mph - N/A   Clear
2:33 AM 32.0 °F 24.8 °F 24.8 °F 75% 30.03 in 10.0 mi West 8.1 mph - N/A   Clear
2:53 AM 32.0 °F 24.2 °F 24.8 °F 75% 30.03 in 10.0 mi West 9.2 mph - N/A   Clear
3:14 AM 32.0 °F 24.8 °F 24.8 °F 75% 30.02 in 10.0 mi West 8.1 mph - N/A   Clear
3:33 AM 32.0 °F 23.6 °F 24.8 °F 75% 30.02 in 10.0 mi West 10.4 mph - N/A   Clear
3:53 AM 32.0 °F 23.6 °F 24.8 °F 75% 30.02 in 10.0 mi West 10.4 mph - N/A   Clear
4:14 AM 32.0 °F 24.2 °F 23.0 °F 69% 30.02 in 10.0 mi West 9.2 mph - N/A   Clear
4:33 AM 32.0 °F 23.6 °F 23.0 °F 69% 30.02 in 10.0 mi WSW 10.4 mph - N/A   Clear
5:14 AM 32.0 °F 24.2 °F 23.0 °F 69% 30.01 in 10.0 mi WSW 9.2 mph - N/A   Clear
5:33 AM 32.0 °F 21.2 °F 23.0 °F 69% 30.01 in 10.0 mi West 16.1 mph - N/A   Clear
5:53 AM 32.0 °F 22.5 °F 23.0 °F 69% 30.00 in 10.0 mi WSW 12.7 mph - N/A   Clear
6:14 AM 32.0 °F 24.8 °F 23.0 °F 69% 30.00 in 10.0 mi WSW 8.1 mph - N/A   Clear
6:33 AM 32.0 °F 23.0 °F 23.0 °F 69% 29.99 in 10.0 mi West 11.5 mph - N/A   Clear
6:53 AM 33.8 °F 24.8 °F 23.0 °F 65% 29.99 in 10.0 mi West 12.7 mph - N/A   Clear
7:14 AM 33.8 °F 25.3 °F 23.0 °F 65% 29.99 in 10.0 mi WSW 11.5 mph 17.3 mph N/A   Clear
7:33 AM 33.8 °F 25.8 °F 23.0 °F 65% 29.98 in 10.0 mi WSW 10.4 mph 18.4 mph N/A   Clear
7:54 AM 35.6 °F 27.1 °F 23.0 °F 60% 29.98 in 10.0 mi WSW 12.7 mph 18.4 mph N/A   Clear
8:14 AM 35.6 °F 26.6 °F 24.8 °F 65% 29.97 in 10.0 mi WSW 13.8 mph - N/A   Clear
8:33 AM 35.6 °F 25.9 °F 23.0 °F 60% 29.96 in 10.0 mi WSW 16.1 mph 20.7 mph N/A   Clear
8:54 AM 35.6 °F 26.2 °F 24.8 °F 65% 29.96 in 10.0 mi SW 15.0 mph - N/A   Clear
9:14 AM 37.4 °F 28.9 °F 24.8 °F 60% 29.96 in 10.0 mi SW 13.8 mph - N/A   Clear
9:33 AM 35.6 °F 26.6 °F 24.8 °F 65% 29.96 in 10.0 mi SW 13.8 mph - N/A   Clear
9:54 AM 37.4 °F 29.3 °F 26.6 °F 65% 29.96 in 10.0 mi SW 12.7 mph - N/A   Scattered Clouds
10:13 AM 39.2 °F 32.5 °F 26.6 °F 61% 29.96 in 10.0 mi WSW 10.4 mph - N/A   Mostly Cloudy
10:54 AM 41.0 °F 32.2 °F 26.6 °F 57% 29.93 in 10.0 mi WSW 18.4 mph 26.5 mph N/A   Scattered Clouds
11:13 AM 42.8 °F 34.8 °F 28.4 °F 57% 29.93 in 10.0 mi SW 17.3 mph - N/A   Clear
11:34 AM 42.8 °F 34.5 °F 26.6 °F 53% 29.94 in 10.0 mi WSW 18.4 mph - N/A   Clear
11:54 AM 42.8 °F 35.4 °F 28.4 °F 57% 29.94 in 10.0 mi WSW 15.0 mph 24.2 mph N/A   Scattered Clouds
12:13 PM 44.6 °F 37.8 °F 28.4 °F 53% 29.94 in 10.0 mi West 15.0 mph 21.9 mph N/A   Scattered Clouds
12:34 PM 44.6 °F 38.4 °F 30.2 °F 57% 29.94 in 10.0 mi West 12.7 mph 19.6 mph N/A   Scattered Clouds
12:53 PM 44.6 °F 37.2 °F 30.2 °F 57% 29.94 in 10.0 mi West 17.3 mph - N/A   Scattered Clouds
1:14 PM 42.8 °F 35.8 °F 30.2 °F 61% 29.94 in 10.0 mi West 13.8 mph 18.4 mph N/A   Scattered Clouds
1:33 PM 42.8 °F 36.6 °F 30.2 °F 61% 29.94 in 10.0 mi West 11.5 mph 18.4 mph N/A   Scattered Clouds
1:54 PM 42.8 °F 35.8 °F 30.2 °F 61% 29.94 in 10.0 mi West 13.8 mph - N/A   Scattered Clouds
2:13 PM 42.8 °F 35.8 °F 30.2 °F 61% 29.95 in 10.0 mi West 13.8 mph 19.6 mph N/A   Scattered Clouds
2:34 PM 41.0 °F 32.2 °F 30.2 °F 65% 29.96 in 10.0 mi WNW 18.4 mph 25.3 mph N/A   Light Drizzle
2:54 PM 37.4 °F 28.5 °F 32.0 °F 81% 29.97 in 5.0 mi WNW 15.0 mph 26.5 mph N/A Rain Light Rain
3:13 PM 35.6 °F 25.5 °F 33.8 °F 93% 29.98 in 5.0 mi NW 17.3 mph 26.5 mph N/A Rain Light Rain
3:34 PM 35.6 °F 29.2 °F 33.8 °F 93% 29.97 in 3.0 mi NW 8.1 mph - 0.01 in Rain Light Rain
3:53 PM 37.4 °F 33.8 °F 35.6 °F 93% 29.96 in 10.0 mi West 4.6 mph - 0.01 in   Light Drizzle
4:13 PM 39.2 °F 34.2 °F 33.8 °F 81% 29.95 in 10.0 mi West 6.9 mph - N/A   Clear
4:34 PM 41.0 °F 37.1 °F 35.6 °F 81% 29.95 in 10.0 mi WNW 5.8 mph - N/A   Scattered Clouds
4:53 PM 41.0 °F 35.8 °F 33.8 °F 76% 29.95 in 10.0 mi WNW 8.1 mph - N/A   Scattered Clouds
5:14 PM 42.8 °F 36.2 °F 33.8 °F 70% 29.95 in 10.0 mi WNW 12.7 mph - N/A   Mostly Cloudy
5:34 PM 44.6 °F 38.1 °F 33.8 °F 66% 29.95 in 10.0 mi West 13.8 mph - N/A   Scattered Clouds
5:53 PM 42.8 °F 36.6 °F 33.8 °F 70% 29.95 in 10.0 mi West 11.5 mph - N/A   Scattered Clouds
6:14 PM 42.8 °F 35.1 °F 30.2 °F 61% 29.96 in 10.0 mi West 16.1 mph - N/A   Scattered Clouds
6:34 PM 39.2 °F 28.0 °F 33.8 °F 81% 29.97 in 10.0 mi WNW 26.5 mph 35.7 mph N/A   Drizzle
6:53 PM 35.6 °F 27.1 °F 33.8 °F 93% 29.98 in 2.5 mi NW 12.7 mph - 0.02 in Snow Snow
7:14 PM 33.8 °F 23.9 °F 32.0 °F 93% 29.98 in 3.0 mi WNW 15.0 mph - 0.01 in Snow Light Snow
7:34 PM 35.6 °F 24.8 °F 30.2 °F 81% 29.99 in 10.0 mi NW 19.6 mph 26.5 mph 0.01 in Rain Light Rain
7:53 PM 35.6 °F 24.5 °F 30.2 °F 81% 30.00 in 10.0 mi NW 20.7 mph 29.9 mph 0.01 in   Overcast
8:14 PM 33.8 °F 23.2 °F 28.4 °F 81% 30.01 in 10.0 mi NW 17.3 mph 23.0 mph N/A   Mostly Cloudy
8:34 PM 33.8 °F 25.3 °F 28.4 °F 81% 30.02 in 10.0 mi NW 11.5 mph 19.6 mph N/A   Clear
8:53 PM 33.8 °F 24.8 °F 30.2 °F 87% 30.03 in 10.0 mi NW 12.7 mph 17.3 mph N/A   Clear
9:54 PM 32.0 °F 21.6 °F 23.0 °F 69% 30.06 in 10.0 mi NW 15.0 mph 18.4 mph N/A   Clear
10:14 PM 32.0 °F 22.1 °F 23.0 °F 69% 30.07 in 10.0 mi NW 13.8 mph 20.7 mph N/A   Clear
10:34 PM 30.2 °F 19.3 °F 21.2 °F 69% 30.08 in 10.0 mi NW 15.0 mph - N/A   Clear
10:54 PM 30.2 °F 19.8 °F 21.2 °F 69% 30.08 in 10.0 mi NW 13.8 mph 20.7 mph N/A   Clear
11:13 PM 30.2 °F 20.8 °F 21.2 °F 69% 30.08 in 10.0 mi NW 11.5 mph - N/A   Clear
11:34 PM 30.2 °F 20.2 °F 21.2 °F 69% 30.08 in 10.0 mi WNW 12.7 mph 18.4 mph N/A   Clear
11:54 PM 30.2 °F 20.2 °F 21.2 °F 69% 30.09 in 10.0 mi NW 12.7 mph 19.6 mph N/A   Clear